Location: Rancho Del Sol Observatory
(38.7214°N, 120.6350°W)
Time: 09:52:23
(UTC-08:00)

A-11 Canister half - Pass Details

Date: 05 February 2020
Orbit: 1517 x 1683 km, 47.2° (Epoch: 22 February)

Event Time Altitude Azimuth Distance (km) Brightness Sun altitude
Rises 04:45:31 0° 293° (WNW) 4,668 - -27.5°
Reaches altitude 10° 04:49:20 10° 280° (W) 3,677 - -26.8°
Maximum altitude 04:56:04 23° 233° (SW) 2,778 - -25.5°
Exits shadow 04:57:32 22° 220° (SW) 2,829 10.0 -25.2°
Drops below altitude 10° 05:02:51 10° 185° (S) 3,690 11.0 -24.2°
Sets 05:06:43 0° 171° (S) 4,688 11.7 -23.4°
